TimeAKDT,TemperatureF,Dew PointF,Humidity,Sea Level PressureIn,VisibilityMPH,Wind Direction,Wind SpeedMPH,Gust SpeedMPH,PrecipitationIn,Events,Conditions,WindDirDegrees,DateUTC
12:16 AM,10.4,6.8,85,29.92,10.0,WSW,6.9,-,N/A,,Partly Cloudy,250,2013-05-18 08:16:00
12:36 AM,10.4,6.8,85,29.92,10.0,WSW,10.4,-,N/A,,Clear,250,2013-05-18 08:36:00
12:56 AM,10.4,6.8,85,29.93,10.0,WSW,8.1,-,N/A,,Clear,250,2013-05-18 08:56:00
1:16 AM,10.4,6.8,85,29.94,10.0,West,9.2,-,N/A,,Scattered Clouds,260,2013-05-18 09:16:00
1:36 AM,10.4,5.0,79,29.94,10.0,West,9.2,-,N/A,,Mostly Cloudy,270,2013-05-18 09:36:00
1:56 AM,8.6,5.0,85,29.95,10.0,SSW,5.8,-,N/A,,Scattered Clouds,200,2013-05-18 09:56:00
2:16 AM,8.6,3.2,79,29.95,10.0,SW,9.2,-,N/A,,Mostly Cloudy,230,2013-05-18 10:16:00
2:36 AM,8.6,1.4,73,29.96,10.0,SW,8.1,-,N/A,,Partly Cloudy,230,2013-05-18 10:36:00
2:56 AM,8.6,3.2,79,29.96,10.0,WSW,10.4,-,N/A,,Scattered Clouds,250,2013-05-18 10:56:00
3:16 AM,8.6,1.4,73,29.96,10.0,WSW,8.1,-,N/A,,Partly Cloudy,240,2013-05-18 11:16:00
3:36 AM,8.6,3.2,79,29.97,10.0,WSW,9.2,-,N/A,,Clear,240,2013-05-18 11:36:00
3:56 AM,8.6,5.0,85,29.97,10.0,WSW,9.2,-,N/A,,Clear,240,2013-05-18 11:56:00
4:16 AM,8.6,1.4,73,29.98,10.0,WSW,6.9,-,N/A,,Mostly Cloudy,250,2013-05-18 12:16:00
4:36 AM,8.6,1.4,73,29.98,10.0,WSW,4.6,-,N/A,,Overcast,240,2013-05-18 12:36:00
4:56 AM,8.6,3.2,79,29.99,10.0,Calm,Calm,-,N/A,,Scattered Clouds,0,2013-05-18 12:56:00
5:16 AM,8.6,3.2,79,29.99,10.0,SSW,3.5,-,N/A,,Partly Cloudy,200,2013-05-18 13:16:00
5:36 AM,8.6,1.4,73,30.00,10.0,Calm,Calm,-,N/A,,Partly Cloudy,0,2013-05-18 13:36:00
5:56 AM,6.8,1.4,79,30.00,10.0,Calm,Calm,-,N/A,,Clear,0,2013-05-18 13:56:00
6:16 AM,8.6,1.4,73,30.00,10.0,Calm,Calm,-,N/A,,Clear,0,2013-05-18 14:16:00
6:36 AM,5.0,-2.2,72,30.01,10.0,East,4.6,-,N/A,,Clear,100,2013-05-18 14:36:00
6:56 AM,6.8,1.4,79,30.01,10.0,East,4.6,-,N/A,,Clear,100,2013-05-18 14:56:00
7:16 AM,5.0,-0.4,78,30.02,10.0,ESE,4.6,-,N/A,,Clear,110,2013-05-18 15:16:00
7:36 AM,6.8,-0.4,72,30.02,10.0,SE,6.9,-,N/A,,Clear,130,2013-05-18 15:36:00
7:56 AM,6.8,-0.4,72,30.02,10.0,ESE,9.2,-,N/A,,Clear,110,2013-05-18 15:56:00
8:16 AM,8.6,1.4,73,30.02,10.0,ESE,12.7,-,N/A,,Clear,120,2013-05-18 16:16:00
8:36 AM,6.8,1.4,79,30.02,10.0,ESE,12.7,-,N/A,,Clear,110,2013-05-18 16:36:00
8:56 AM,8.6,-0.4,67,30.03,10.0,SE,13.8,-,N/A,,Clear,130,2013-05-18 16:56:00
9:16 AM,8.6,1.4,73,30.03,10.0,ESE,15.0,-,N/A,,Clear,120,2013-05-18 17:16:00
9:36 AM,8.6,1.4,73,30.04,10.0,SE,13.8,18.4,N/A,,Clear,130,2013-05-18 17:36:00
9:56 AM,8.6,1.4,73,30.03,10.0,SE,16.1,-,N/A,,Clear,130,2013-05-18 17:56:00
10:16 AM,8.6,1.4,73,30.04,10.0,ESE,15.0,-,N/A,,Partly Cloudy,120,2013-05-18 18:16:00
10:36 AM,10.4,3.2,73,30.04,10.0,ESE,12.7,-,N/A,,Partly Cloudy,120,2013-05-18 18:36:00
10:56 AM,10.4,3.2,73,30.04,10.0,ESE,13.8,-,N/A,,Partly Cloudy,110,2013-05-18 18:56:00
11:16 AM,12.2,6.8,79,30.04,10.0,ESE,16.1,23.0,N/A,,Partly Cloudy,110,2013-05-18 19:16:00
11:36 AM,12.2,6.8,79,30.03,10.0,ESE,18.4,-,N/A,,Clear,120,2013-05-18 19:36:00
11:56 AM,14.0,8.6,79,30.03,10.0,ESE,17.3,-,N/A,,Clear,120,2013-05-18 19:56:00
12:16 PM,15.8,8.6,73,30.04,10.0,SE,18.4,24.2,N/A,,Clear,130,2013-05-18 20:16:00
12:36 PM,19.4,10.4,68,30.04,10.0,SSE,15.0,-,N/A,,Clear,150,2013-05-18 20:36:00
12:56 PM,19.4,10.4,68,30.04,10.0,SE,15.0,19.6,N/A,,Clear,130,2013-05-18 20:56:00
1:16 PM,21.2,10.4,63,30.04,10.0,SE,17.3,-,N/A,,Mostly Cloudy,130,2013-05-18 21:16:00
1:36 PM,21.2,10.4,63,30.04,10.0,SSE,17.3,-,N/A,,Overcast,150,2013-05-18 21:36:00
1:56 PM,21.2,10.4,63,30.04,10.0,SE,18.4,23.0,N/A,,Overcast,140,2013-05-18 21:56:00
2:16 PM,21.2,12.2,68,30.04,10.0,South,18.4,23.0,N/A,,Mostly Cloudy,170,2013-05-18 22:16:00
2:36 PM,23.0,14.0,68,30.04,10.0,SSE,19.6,24.2,N/A,,Scattered Clouds,160,2013-05-18 22:36:00
2:56 PM,24.8,14.0,64,30.04,10.0,South,18.4,-,N/A,,Scattered Clouds,170,2013-05-18 22:56:00
3:16 PM,24.8,14.0,64,30.05,10.0,SSE,20.7,25.3,N/A,,Mostly Cloudy,160,2013-05-18 23:16:00
3:36 PM,24.8,15.8,69,30.05,10.0,SSE,20.7,27.6,N/A,,Overcast,150,2013-05-18 23:36:00
3:56 PM,24.8,15.8,69,30.05,10.0,SSE,19.6,23.0,N/A,,Overcast,160,2013-05-18 23:56:00
4:16 PM,24.8,15.8,69,30.05,10.0,SE,17.3,-,N/A,,Scattered Clouds,140,2013-05-19 00:16:00
4:36 PM,26.6,17.6,69,30.05,10.0,SE,15.0,-,N/A,,Mostly Cloudy,140,2013-05-19 00:36:00
4:56 PM,26.6,17.6,69,30.05,10.0,SSE,11.5,20.7,N/A,,Mostly Cloudy,150,2013-05-19 00:56:00
5:16 PM,26.6,17.6,69,30.05,10.0,South,16.1,21.9,N/A,,Mostly Cloudy,170,2013-05-19 01:16:00
5:36 PM,28.4,17.6,64,30.05,10.0,SSE,17.3,26.5,N/A,,Overcast,150,2013-05-19 01:36:00
5:56 PM,26.6,17.6,69,30.06,10.0,SSE,20.7,-,N/A,,Overcast,150,2013-05-19 01:56:00
6:16 PM,26.6,19.4,74,30.06,10.0,SSE,16.1,23.0,N/A,,Overcast,160,2013-05-19 02:16:00
6:36 PM,26.6,17.6,69,30.06,10.0,SSE,21.9,27.6,N/A,,Overcast,160,2013-05-19 02:36:00
6:56 PM,28.4,19.4,69,30.06,10.0,SSE,21.9,27.6,N/A,,Overcast,160,2013-05-19 02:56:00
7:16 PM,28.4,19.4,69,30.07,10.0,SSE,19.6,24.2,N/A,,Overcast,150,2013-05-19 03:16:00
7:36 PM,26.6,19.4,74,30.07,10.0,SE,16.1,-,N/A,,Overcast,140,2013-05-19 03:36:00
7:56 PM,26.6,19.4,74,30.07,10.0,SE,19.6,26.5,N/A,,Overcast,140,2013-05-19 03:56:00
8:16 PM,26.6,19.4,74,30.07,10.0,SSE,18.4,26.5,N/A,,Overcast,150,2013-05-19 04:16:00
8:36 PM,26.6,19.4,74,30.08,10.0,SSE,17.3,21.9,N/A,,Overcast,160,2013-05-19 04:36:00
8:56 PM,28.4,19.4,69,30.08,10.0,SSE,15.0,20.7,N/A,,Overcast,160,2013-05-19 04:56:00
9:16 PM,28.4,19.4,69,30.08,10.0,SE,17.3,20.7,N/A,,Overcast,140,2013-05-19 05:16:00
9:36 PM,26.6,21.2,80,30.08,10.0,SE,20.7,28.8,N/A,,Overcast,130,2013-05-19 05:36:00
9:56 PM,26.6,21.2,80,30.09,10.0,SSE,20.7,-,N/A,,Overcast,150,2013-05-19 05:56:00
10:16 PM,28.4,21.2,74,30.09,10.0,SSE,17.3,24.2,N/A,,Overcast,160,2013-05-19 06:16:00
10:36 PM,28.4,21.2,74,30.10,10.0,SSE,21.9,-,N/A,,Overcast,160,2013-05-19 06:36:00
10:56 PM,28.4,21.2,74,30.10,10.0,SSE,20.7,26.5,N/A,,Overcast,150,2013-05-19 06:56:00
11:16 PM,28.4,23.0,80,30.11,10.0,SSE,15.0,26.5,N/A,,Overcast,150,2013-05-19 07:16:00
11:36 PM,28.4,23.0,80,30.11,10.0,SE,18.4,26.5,N/A,,Overcast,140,2013-05-19 07:36:00
11:56 PM,28.4,23.0,80,30.11,10.0,SE,13.8,-,N/A,,Overcast,130,2013-05-19 07:56:00